Home   Weather   Great Falls   Past weeks
Flag for USA

Past Weather in Great Falls, Montana, USA — Yesterday and Last 2 Weeks

Now
42 °F

Clear.


Feels Like: 37 °F
Forecast: 77 / 44 °F
Wind: 9 mph from Southwest

Location: Great Falls International Airport

Current Time: Jul 20, 2019 at 4:35:53 am

Latest Report: Jul 20, 2019 at 3:53 am


Visibility: 10 mi

Pressure: 30.03 "Hg (26.52 "Hg at 1015m altitude)

Humidity: 71%

Dew Point: 33 °F

Location of Great FallsLocation

Past Weather in Great Falls — Graph

°F

Great Falls Temperature Yesterday

Maximum temperature yesterday: 72 °F (at 1:53 pm)
Minimum temperature yesterday: 44 °F (at 4:53 am)
Average temperature yesterday: 59 °F

High & Low Weather Summary for the Past Weeks

 TemperatureHumidityPressure
High88 °F (Jul 14, 4:16 pm)100% (Jul 6, 1:53 am)30.26 "Hg (Jul 6, 1:53 am)
Low42 °F (Jul 20, 1:53 am)17% (Jul 19, 6:53 pm)29.64 "Hg (Jul 18, 9:53 am)
Average66 °F59%29.93 "Hg
* Reported Jul 5 2:11 am — Jul 20 2:53 am, Great Falls. Weather by CustomWeather, © 2019

Note: Actual official high and low records may vary slightly from our data, if they occured in-between our weather recording intervals... More about our weather records

Advertising

Great Falls Weather History for the Previous 24 Hours

Scroll right to see more
 ConditionsComfort  
Time TempWeatherWind HumidityBarometerVisibility
2:53 am
Sat, Jul 20
42 °FClear.9 mph71%30.03 "Hg10 mi
1:53 am42 °FClear.8 mph71%30.01 "Hg10 mi
12:53 am50 °FClear.10 mph50%29.99 "Hg10 mi
11:53 pm
Fri, Jul 19
48 °FClear.9 mph56%29.99 "Hg10 mi
10:53 pm50 °FClear.5 mph52%29.97 "Hg10 mi
9:53 pm55 °FClear.9 mph44%29.94 "Hg10 mi
8:53 pm61 °FSunny.12 mph34%29.91 "Hg10 mi
7:53 pm67 °FPassing clouds.15 mph20%29.89 "Hg10 mi
6:53 pm69 °FPartly sunny.20 mph17%29.89 "Hg10 mi
5:53 pm71 °FSunny.23 mph18%29.88 "Hg10 mi
4:53 pm72 °FSunny.20 mph18%29.87 "Hg10 mi
3:53 pm72 °FSunny.26 mph19%29.85 "Hg10 mi
2:53 pm72 °FSunny.29 mph19%29.84 "Hg10 mi
1:53 pm72 °FSunny.24 mph19%29.83 "Hg10 mi
12:53 pm71 °FPassing clouds.18 mph20%29.83 "Hg10 mi
11:53 am70 °FSunny.15 mph21%29.83 "Hg10 mi
10:53 am68 °FSunny.20 mph22%29.84 "Hg10 mi
9:53 am65 °FSunny.18 mph26%29.82 "Hg10 mi
8:53 am62 °FSunny.14 mph31%29.83 "Hg10 mi
7:53 am54 °FSunny.7 mph47%29.83 "Hg10 mi
6:53 am45 °FSunny.No wind68%29.84 "Hg10 mi
5:53 am44 °FSunny.9 mph63%29.83 "Hg10 mi
4:53 am44 °FClear.9 mph58%29.81 "Hg10 mi
Weather by CustomWeather, © 2019

See weather overview